Hourly Data Report for June 09, 2018

TORONTO CITY
ONTARIO
Current Station Operator: ECCC - MSC

43°40'00.000" N
79°24'00.000" W
112.50 m
6158355
71508
XTO

Download Data

Hourly Data (June 2018)
Hourly Data Report for June 9, 2018
TIME
LST
Temp Definition
°C
Dew Point Definition
°C
Rel Hum Definition
%
Precip. Amount Definition
mm

Wind Dir Definition
10's deg

Wind Spd Definition
km/h
Visibility Definition
km
Stn Press Definition
kPa
Hmdx Definition


Wind Chill Definition


Weather Definition


00:00 16.5 7.5 55 0.0 LegendMM LegendMM   100.83     LegendNANA
01:00 15.6 7.9 60 0.0 LegendMM LegendMM   100.83     LegendNANA
02:00 15.6 8.3 62 0.0 LegendMM LegendMM   100.83     LegendNANA
03:00 14.9 8.3 65 0.0 LegendMM LegendMM   100.80     LegendNANA
04:00 16.2 6.8 54 0.0 LegendMM LegendMM   100.80     LegendNANA
05:00 15.3 7.9 61 0.0 LegendMM LegendMM   100.82     LegendNANA
06:00 15.9 8.8 63 0.0 LegendMM LegendMM   100.88     LegendNANA
07:00 18.0 7.3 50 0.0 LegendMM LegendMM   100.86     LegendNANA
08:00 19.0 7.7 48 0.0 LegendMM LegendMM   100.89     LegendNANA
09:00 19.5 9.0 51 0.0 LegendMM LegendMM   100.90     LegendNANA
10:00 19.9 7.5 45 0.0 LegendMM LegendMM   100.86     LegendNANA
11:00 20.5 6.6 40 0.0 LegendMM LegendMM   100.86     LegendNANA
12:00 21.9 7.0 38 0.0 LegendMM LegendMM   100.85     LegendNANA
13:00 22.6 5.5 33 0.0 LegendMM LegendMM   100.78     LegendNANA
14:00 22.2 7.1 38 0.0 LegendMM LegendMM   100.76     LegendNANA
15:00 23.3 6.9 35 0.0 LegendMM LegendMM   100.70     LegendNANA
16:00 23.0 6.7 35 0.0 LegendMM LegendMM   100.65     LegendNANA
17:00 22.5 5.7 34 0.0 LegendMM LegendMM   100.53     LegendNANA
18:00 22.0 6.7 37 0.0 LegendMM LegendMM   100.50     LegendNANA
19:00 21.1 7.0 40 0.0 LegendMM LegendMM   100.50     LegendNANA
20:00 19.7 7.7 46 0.0 LegendMM LegendMM   100.53     LegendNANA
21:00 18.6 9.2 54 0.0 LegendMM LegendMM   100.55     LegendNANA
22:00 18.0 9.5 58 0.0 LegendMM LegendMM   100.53     LegendNANA
23:00 17.8 9.9 60 0.0 LegendMM LegendMM   100.52     LegendNANA

Notes on Data Quality.

Legend

  • E = Estimated
  • M = Missing
  • NA = Not Available*
  • [empty] = Indicates an unobserved value
Date modified: